When you browse on this site, cookies collect data to enhance your experience and personalize the content and advertising you see.
Visit our Privacy Policy to learn more. By continuing to use the site, you agree to this use of cookies and data.
EN

Hourly Weather Santa Clara

Today, 8 August, Saturday

Time Temperature Precipitation Wind Pressure Humidity
00:00 +17°C° 0 mm 0 mps 758 mmHg 73%
01:00 +17°C° 0 mm 0 mps 758 mmHg 73%
02:00 +17°C° 0 mm 0 mps 758 mmHg 72%
03:00 +19°C° 0 mm 1 mps 758 mmHg 71%
04:00 +19°C° 0 mm 1 mps 758 mmHg 71%
05:00 +20°C° 0 mm 1 mps 758 mmHg 66%
06:00 +19°C° 0 mm 0 mps 758 mmHg 62%
07:00 +21°C° 0 mm 0 mps 758 mmHg 58%
08:00 +26°C° 0 mm 1 mps 758 mmHg 50%
09:00 +29°C° 0 mm 1 mps 758 mmHg 42%
10:00 +32°C° 0 mm 1 mps 758 mmHg 34%
11:00 +33°C° 0 mm 1 mps 758 mmHg 32%
12:00 +35°C° 0 mm 2 mps 758 mmHg 30%
13:00 +36°C° 0 mm 2 mps 757 mmHg 27%
14:00 +36°C° 0 mm 2 mps 757 mmHg 28%
15:00 +36°C° 0 mm 2 mps 757 mmHg 28%
16:00 +35°C° 0 mm 3 mps 757 mmHg 29%
17:00 +31°C° 0 mm 2 mps 757 mmHg 35%
18:00 +29°C° 0 mm 2 mps 757 mmHg 42%
19:00 +26°C° 0 mm 1 mps 757 mmHg 48%
20:00 +25°C° 0 mm 1 mps 757 mmHg 51%
21:00 +23°C° 0 mm 1 mps 757 mmHg 53%
22:00 +22°C° 0 mm 1 mps 758 mmHg 56%
23:00 +22°C° 0 mm 1 mps 757 mmHg 57%

Tomorrow, 9 August, Sunday

Time Temperature Precipitation Wind Pressure Humidity
00:00 +22°C° 0 mm 1 mps 757 mmHg 57%
01:00 +19°C° 0 mm 0 mps 757 mmHg 57%
02:00 +19°C° 0 mm 0 mps 757 mmHg 57%
03:00 +19°C° 0 mm 0 mps 757 mmHg 57%
04:00 +19°C° 0 mm 0 mps 757 mmHg 57%
05:00 +20°C° 0 mm 0 mps 757 mmHg 53%
06:00 +22°C° 0 mm 0 mps 757 mmHg 50%
07:00 +23°C° 0 mm 0 mps 758 mmHg 46%
08:00 +28°C° 0 mm 1 mps 758 mmHg 40%
09:00 +31°C° 0 mm 1 mps 758 mmHg 34%
10:00 +34°C° 0 mm 1 mps 758 mmHg 28%
11:00 +35°C° 0 mm 1 mps 757 mmHg 26%
12:00 +37°C° 0 mm 2 mps 757 mmHg 25%
13:00 +38°C° 0 mm 2 mps 757 mmHg 24%
14:00 +37°C° 0 mm 2 mps 756 mmHg 25%
15:00 +37°C° 0 mm 2 mps 756 mmHg 26%
16:00 +36°C° 0 mm 2 mps 755 mmHg 27%
17:00 +32°C° 0 mm 2 mps 756 mmHg 34%
18:00 +29°C° 0 mm 2 mps 756 mmHg 40%
19:00 +26°C° 0 mm 1 mps 756 mmHg 47%
20:00 +25°C° 0 mm 1 mps 756 mmHg 51%
21:00 +24°C° 0 mm 1 mps 756 mmHg 55%
22:00 +22°C° 0 mm 1 mps 757 mmHg 58%
23:00 +22°C° 0 mm 1 mps 757 mmHg 58%

Day after tomorrow, 10 August, Monday

Time Temperature Precipitation Wind Pressure Humidity
00:00 +22°C° 0 mm 1 mps 756 mmHg 57%
01:00 +20°C° 0 mm 0 mps 756 mmHg 56%
02:00 +20°C° 0 mm 0 mps 756 mmHg 56%
03:00 +19°C° 0 mm 0 mps 756 mmHg 57%
04:00 +19°C° 0 mm 0 mps 756 mmHg 57%
05:00 +20°C° 0 mm 0 mps 756 mmHg 55%
06:00 +21°C° 0 mm 0 mps 757 mmHg 53%
07:00 +22°C° 0 mm 0 mps 757 mmHg 51%
08:00 +27°C° 0 mm 1 mps 757 mmHg 44%
09:00 +30°C° 0 mm 1 mps 757 mmHg 37%
10:00 +33°C° 0 mm 1 mps 757 mmHg 29%
11:00 +35°C° 0 mm 2 mps 757 mmHg 28%
12:00 +36°C° 0 mm 2 mps 757 mmHg 27%
13:00 +37°C° 0 mm 2 mps 757 mmHg 26%
14:00 +36°C° 0 mm 2 mps 757 mmHg 28%
15:00 +35°C° 0 mm 2 mps 756 mmHg 30%
16:00 +34°C° 0 mm 3 mps 756 mmHg 32%
17:00 +30°C° 0 mm 2 mps 756 mmHg 40%
18:00 +28°C° 0 mm 2 mps 756 mmHg 48%
19:00 +25°C° 0 mm 1 mps 756 mmHg 55%
20:00 +24°C° 0 mm 1 mps 756 mmHg 60%
21:00 +22°C° 0 mm 1 mps 756 mmHg 64%
22:00 +21°C° 0 mm 1 mps 757 mmHg 68%
23:00 +21°C° 0 mm 1 mps 757 mmHg 69%

11 August, Tuesday

Time Temperature Precipitation Wind Pressure Humidity
00:00 +21°C° 0 mm 1 mps 757 mmHg 70%
01:00 +20°C° 0 mm 1 mps 757 mmHg 71%
02:00 +20°C° 0 mm 1 mps 756 mmHg 72%
03:00 +20°C° 0 mm 1 mps 756 mmHg 73%
04:00 +17°C° 0 mm 0 mps 756 mmHg 74%
05:00 +20°C° 0 mm 1 mps 757 mmHg 70%
06:00 +21°C° 0 mm 1 mps 757 mmHg 66%
07:00 +22°C° 0 mm 1 mps 757 mmHg 62%
08:00 +26°C° 0 mm 1 mps 757 mmHg 53%
09:00 +29°C° 0 mm 1 mps 758 mmHg 43%
10:00 +32°C° 0 mm 1 mps 758 mmHg 34%
11:00 +33°C° 0 mm 1 mps 757 mmHg 32%
12:00 +35°C° 0 mm 2 mps 757 mmHg 31%
13:00 +36°C° 0 mm 3 mps 757 mmHg 29%
14:00 +35°C° 0 mm 3 mps 757 mmHg 31%
15:00 +34°C° 0 mm 3 mps 756 mmHg 33%
16:00 +33°C° 0 mm 3 mps 756 mmHg 35%
17:00 +30°C° 0 mm 2 mps 756 mmHg 43%
18:00 +27°C° 0 mm 2 mps 756 mmHg 51%
19:00 +24°C° 0 mm 1 mps 756 mmHg 60%
20:00 +23°C° 0 mm 1 mps 756 mmHg 64%
21:00 +22°C° 0 mm 1 mps 756 mmHg 69%
22:00 +21°C° 0 mm 1 mps 757 mmHg 74%
23:00 +20°C° 0 mm 1 mps 756 mmHg 74%

12 August, Wednesday

Time Temperature Precipitation Wind Pressure Humidity
00:00 +20°C° 0 mm 1 mps 756 mmHg 74%
01:00 +20°C° 0 mm 1 mps 756 mmHg 75%
02:00 +20°C° 0 mm 1 mps 756 mmHg 76%
03:00 +19°C° 0 mm 1 mps 756 mmHg 77%
04:00 +19°C° 0 mm 1 mps 756 mmHg 78%
05:00 +20°C° 0 mm 1 mps 756 mmHg 74%
06:00 +21°C° 0 mm 1 mps 757 mmHg 70%
07:00 +20°C° 0 mm 0 mps 757 mmHg 65%
08:00 +25°C° 0 mm 1 mps 757 mmHg 55%
09:00 +28°C° 0 mm 1 mps 757 mmHg 45%
10:00 +31°C° 0 mm 1 mps 757 mmHg 35%
11:00 +32°C° 0 mm 2 mps 757 mmHg 34%
12:00 +35°C° 0 mm 2 mps 756 mmHg 32%
13:00 +36°C° 0 mm 2 mps 756 mmHg 30%
14:00 +35°C° 0 mm 3 mps 756 mmHg 30%
15:00 +34°C° 0 mm 3 mps 756 mmHg 31%
16:00 +34°C° 0 mm 3 mps 755 mmHg 32%
17:00 +29°C° 0 mm 2 mps 755 mmHg 40%
18:00 +26°C° 0 mm 2 mps 756 mmHg 47%
19:00 +23°C° 0 mm 2 mps 756 mmHg 54%
20:00 +22°C° 0 mm 1 mps 756 mmHg 58%
21:00 +20°C° 0 mm 1 mps 756 mmHg 63%
22:00 +19°C° 0 mm 1 mps 757 mmHg 67%
23:00 +18°C° 0 mm 1 mps 757 mmHg 68%

13 August, Thursday

Time Temperature Precipitation Wind Pressure Humidity
00:00 +18°C° 0 mm 1 mps 757 mmHg 70%
01:00 +16°C° 0 mm 1 mps 757 mmHg 72%
02:00 +16°C° 0 mm 1 mps 757 mmHg 73%
03:00 +16°C° 0 mm 1 mps 757 mmHg 74%
04:00 +16°C° 0 mm 1 mps 757 mmHg 74%
05:00 +18°C° 0 mm 1 mps 757 mmHg 70%
06:00 +19°C° 0 mm 1 mps 757 mmHg 66%
07:00 +20°C° 0 mm 1 mps 757 mmHg 62%
08:00 +23°C° 0 mm 1 mps 758 mmHg 53%
09:00 +26°C° 0 mm 1 mps 758 mmHg 44%
10:00 +29°C° 0 mm 1 mps 758 mmHg 35%
11:00 +30°C° 0 mm 2 mps 757 mmHg 33%
12:00 +31°C° 0 mm 3 mps 757 mmHg 31%
13:00 +33°C° 0 mm 3 mps 757 mmHg 29%
14:00 +31°C° 0 mm 3 mps 757 mmHg 30%
15:00 +30°C° 0 mm 3 mps 757 mmHg 32%
16:00 +30°C° 0 mm 3 mps 756 mmHg 33%
17:00 +27°C° 0 mm 2 mps 756 mmHg 42%
18:00 +24°C° 0 mm 2 mps 756 mmHg 51%
19:00 +20°C° 0 mm 2 mps 757 mmHg 61%
20:00 +20°C° 0 mm 1 mps 757 mmHg 65%
21:00 +19°C° 0 mm 1 mps 757 mmHg 70%
22:00 +16°C° 0 mm 1 mps 758 mmHg 75%
23:00 +16°C° 0 mm 1 mps 758 mmHg 76%
Show more